EW5507 Weather Reports


time (UTC)temp
C
wind
direction
speed
KPH
gust
KPH
rain 1hr
cm
rain 24hr
cm
rain mn
cm
humidity
%
barometer
mb
20260503053330 15 144 0.0 0.0 0.00 0.00 0.00 35 1009.9
20260503052826 15 126 0.0 0.0 0.00 0.00 0.00 36 1009.9
20260503052323 15 136 0.0 0.0 0.00 0.00 0.00 36 1009.9
20260503051819 15 139 0.0 0.0 0.00 0.00 0.00 36 1009.9
20260503051315 15 128 0.0 1.6 0.00 0.00 0.00 35 1010.3
20260503050812 14 143 0.0 0.0 0.00 0.00 0.00 36 1009.9
20260503050308 13 116 0.0 0.0 0.00 0.00 0.00 35 1009.9
20260503045806 13 136 0.0 1.6 0.00 0.00 0.00 35 1010.3
20260503045305 13 160 0.0 0.0 0.00 0.00 0.00 39 1009.9
20260503044800 13 149 0.0 0.0 0.00 0.00 0.00 40 1009.9
20260503044257 14 152 0.0 0.0 0.00 0.00 0.00 41 1009.5
20260503043754 15 165 0.0 0.0 0.00 0.00 0.00 41 1009.5
20260503043251 15 163 0.0 1.6 0.00 0.00 0.00 39 1009.5
20260503042747 15 162 0.0 1.6 0.00 0.00 0.00 38 1009.5
20260503042244 15 157 1.6 1.6 0.00 0.00 0.00 39 1009.9
20260503041739 15 160 0.0 0.0 0.00 0.00 0.00 37 1009.9
20260503041238 15 145 0.0 0.0 0.00 0.00 0.00 36 1009.9
20260503040735 15 92 0.0 1.6 0.00 0.00 0.00 36 1009.5
20260503040233 16 140 0.0 0.0 0.00 0.00 0.00 35 1009.5
20260503035729 16 32 3.2 3.2 0.00 0.00 0.00 35 1009.5
20260503035227 16 144 0.0 0.0 0.00 0.00 0.00 34 1009.5
20260503034724 16 140 0.0 0.0 0.00 0.00 0.00 35 1009.5
20260503034221 16 155 0.0 0.0 0.00 0.00 0.00 35 1009.5
20260503033718 17 155 0.0 0.0 0.00 0.00 0.00 34 1009.2
20260503033215 17 157 0.0 0.0 0.00 0.00 0.00 33 1009.5
20260503032714 17 159 0.0 0.0 0.00 0.00 0.00 34 1009.5
20260503032212 17 161 0.0 0.0 0.00 0.00 0.00 33 1009.2
20260503031709 17 162 0.0 0.0 0.00 0.00 0.00 33 1009.5
20260503031208 17 160 0.0 0.0 0.00 0.00 0.00 32 1009.5
20260503030703 18 157 0.0 0.0 0.00 0.00 0.00 32 1009.5
20260503030159 18 156 0.0 0.0 0.00 0.00 0.00 32 1009.5
20260503025656 18 154 0.0 0.0 0.00 0.00 0.00 32 1009.5
20260503025154 18 147 0.0 0.0 0.00 0.00 0.00 32 1009.5
20260503024650 18 157 0.0 0.0 0.00 0.00 0.00 32 1009.5
20260503024148 18 159 0.0 0.0 0.00 0.00 0.00 31 1009.9
20260503023644 19 153 0.0 0.0 0.00 0.00 0.00 31 1009.2
20260503023141 19 139 0.0 0.0 0.00 0.00 0.00 30 1009.5
20260503022637 19 142 0.0 0.0 0.00 0.00 0.00 30 1009.5
20260503022132 20 148 0.0 0.0 0.00 0.00 0.00 30 1009.5
20260503021629 20 141 0.0 0.0 0.00 0.00 0.00 29 1009.5
20260503021125 20 142 0.0 0.0 0.00 0.00 0.00 29 1009.5
20260503020622 20 143 0.0 3.2 0.00 0.00 0.00 29 1009.5
20260503020120 20 55 3.2 3.2 0.00 0.00 0.00 28 1009.5
20260503015616 20 121 0.0 0.0 0.00 0.00 0.00 28 1009.5
20260503015114 20 96 1.6 3.2 0.00 0.00 0.00 28 1009.5
20260503014609 20 109 0.0 0.0 0.00 0.00 0.00 27 1009.9
20260503014107 20 298 4.8 4.8 0.00 0.00 0.00 28 1009.9
20260503013604 20 10 1.6 4.8 0.00 0.00 0.00 28 1009.9
20260503013102 20 95 1.6 3.2 0.00 0.00 0.00 29 1009.9
20260503012559 20 97 1.6 4.8 0.00 0.00 0.00 29 1010.3
20260503012056 20 84 3.2 4.8 0.00 0.00 0.00 29 1009.9
20260503011552 20 104 1.6 3.2 0.00 0.00 0.00 30 1009.9
20260503011050 20 128 0.0 0.0 0.00 0.00 0.00 30 1009.9
20260503010545 20 76 4.8 4.8 0.00 0.00 0.00 30 1009.9
20260503010043 20 294 4.8 8.0 0.00 0.00 0.00 29 1010.3
20260503005540 20 341 6.4 8.0 0.00 0.00 0.00 30 1009.9
20260503005038 20 27 1.6 1.6 0.00 0.00 0.00 30 1009.9
20260503004533 20 160 0.0 0.0 0.00 0.00 0.00 31 1010.3
20260503004032 20 69 0.0 3.2 0.00 0.00 0.00 30 1010.3
20260503003528 21 153 3.2 4.8 0.00 0.00 0.00 30 1010.3
20260503003025 21 117 1.6 3.2 0.00 0.00 0.00 30 1010.3
20260503002522 21 76 1.6 3.2 0.00 0.00 0.00 30 1010.3
20260503002019 21 116 1.6 3.2 0.00 0.00 0.00 30 1010.3
20260503001515 21 81 0.0 1.6 0.00 0.00 0.00 30 1010.6
20260503001013 21 312 4.8 4.8 0.00 0.00 0.00 30 1010.6
20260503000510 21 63 3.2 4.8 0.00 0.00 0.00 30 1010.6
20260503000007 21 45 3.2 8.0 0.00 0.00 0.00 30 1010.6
20260502235504 21 93 1.6 3.2 0.00 0.00 0.00 30 1010.9
20260502235002 21 135 0.0 1.6 0.00 0.00 0.00 29 1010.9
20260502234458 21 114 1.6 3.2 0.00 0.00 0.00 29 1010.9
20260502233955 21 147 0.0 0.0 0.00 0.00 0.00 30 1011.4
20260502233450 21 207 1.6 3.2 0.00 0.00 0.00 31 1011.4
20260502232947 21 116 4.8 8.0 0.00 0.00 0.00 30 1010.9
20260502232443 21 148 4.8 8.0 0.00 0.00 0.00 31 1011.7
20260502231940 21 157 1.6 1.6 0.00 0.00 0.00 30 1011.4
20260502231438 21 310 1.6 3.2 0.00 0.00 0.00 30 1011.7
20260502230936 20 139 3.2 3.2 0.00 0.00 0.00 30 1011.7
20260502230433 20 160 1.6 3.2 0.00 0.00 0.00 30 1011.7
20260502225931 20 79 0.0 1.6 0.00 0.00 0.00 31 1012.1
20260502225427 20 252 1.6 1.6 0.00 0.00 0.00 31 1012.1
20260502224924 20 333 1.6 3.2 0.00 0.00 0.00 30 1012.4
20260502224420 21 182 0.0 1.6 0.00 0.00 0.00 31 1012.4
20260502223917 20 295 1.6 3.2 0.00 0.00 0.00 29 1012.4
20260502223415 20 350 3.2 3.2 0.00 0.00 0.00 30 1012.4
20260502222914 20 5 3.2 4.8 0.00 0.00 0.00 31 1012.4
20260502222411 20 15 0.0 1.6 0.00 0.00 0.00 30 1012.7
20260502221910 20 139 6.4 11.3 0.00 0.00 0.00 30 1012.7
20260502221408 20 167 0.0 1.6 0.00 0.00 0.00 31 1012.7
20260502220905 20 22 9.7 11.3 0.00 0.00 0.00 30 1012.7
20260502220400 20 105 1.6 3.2 0.00 0.00 0.00 31 1013.2
20260502215857 20 312 4.8 4.8 0.00 0.00 0.00 30 1013.2
20260502215355 20 204 3.2 3.2 0.00 0.00 0.00 30 1013.2
20260502214851 20 83 1.6 1.6 0.00 0.00 0.00 31 1013.2
20260502214348 20 286 6.4 9.7 0.00 0.00 0.00 31 1013.2
20260502213845 20 38 3.2 3.2 0.00 0.00 0.00 31 1013.5
20260502213342 20 320 1.6 3.2 0.00 0.00 0.00 31 1013.5
20260502212841 20 108 0.0 1.6 0.00 0.00 0.00 30 1013.5
20260502212339 20 5 3.2 4.8 0.00 0.00 0.00 30 1013.5
20260502211836 20 178 11.3 20.9 0.00 0.00 0.00 31 1013.9
20260502211331 20 197 0.0 1.6 0.00 0.00 0.00 33 1013.9
20260502210829 20 148 0.0 1.6 0.00 0.00 0.00 32 1014.2
20260502210326 20 121 1.6 3.2 0.00 0.00 0.00 31 1013.9
20260502205824 20 73 0.0 0.0 0.00 0.00 0.00 31 1014.2
20260502205319 20 42 3.2 4.8 0.00 0.00 0.00 30 1014.2
20260502204817 19 199 3.2 4.8 0.00 0.00 0.00 31 1013.9
20260502204314 19 89 1.6 3.2 0.00 0.00 0.00 31 1014.2
20260502203811 19 143 0.0 0.0 0.00 0.00 0.00 31 1014.2
20260502203309 19 85 0.0 1.6 0.00 0.00 0.00 34 1014.6
20260502202809 19 335 4.8 4.8 0.00 0.00 0.00 32 1014.6
20260502202307 18 48 3.2 4.8 0.00 0.00 0.00 33 1015.0
20260502201805 18 150 0.0 1.6 0.00 0.00 0.00 33 1015.0
20260502201300 18 148 1.6 3.2 0.00 0.00 0.00 31 1015.3
20260502200757 18 26 0.0 3.2 0.00 0.00 0.00 33 1015.0
20260502200253 18 119 0.0 1.6 0.00 0.00 0.00 32 1015.3
20260502195751 18 159 4.8 8.0 0.00 0.00 0.00 32 1015.0
20260502195247 18 156 4.8 8.0 0.00 0.00 0.00 32 1015.0
20260502194744 18 179 0.0 1.6 0.00 0.00 0.00 34 1015.3
20260502194241 18 141 0.0 1.6 0.00 0.00 0.00 32 1015.6
20260502193737 18 94 4.8 4.8 0.00 0.00 0.00 32 1015.6
20260502193235 18 179 0.0 1.6 0.00 0.00 0.00 33 1015.3
20260502192734 18 335 1.6 4.8 0.00 0.00 0.00 32 1015.6
20260502192232 18 356 1.6 3.2 0.00 0.00 0.00 33 1015.6
20260502191729 18 154 1.6 1.6 0.00 0.00 0.00 34 1015.6
20260502191227 18 2 3.2 4.8 0.00 0.00 0.00 32 1016.1
20260502190724 18 70 1.6 3.2 0.00 0.00 0.00 33 1015.6
20260502190221 18 66 4.8 8.0 0.00 0.00 0.00 32 1016.1
20260502185721 18 302 4.8 8.0 0.00 0.00 0.00 32 1016.1
20260502185218 17 113 1.6 3.2 0.00 0.00 0.00 32 1016.1
20260502184714 17 151 1.6 3.2 0.00 0.00 0.00 32 1016.4
20260502184210 17 272 3.2 4.8 0.00 0.00 0.00 33 1016.4
20260502183707 17 349 6.4 9.7 0.00 0.00 0.00 32 1016.4
20260502183202 17 19 1.6 4.8 0.00 0.00 0.00 33 1016.4
20260502182658 17 142 0.0 1.6 0.00 0.00 0.00 33 1016.8
20260502182153 17 96 1.6 3.2 0.00 0.00 0.00 34 1016.4
20260502181651 17 98 1.6 3.2 0.00 0.00 0.00 33 1016.8
20260502181150 17 187 3.2 3.2 0.00 0.00 0.00 33 1016.8
20260502180647 17 156 0.0 0.0 0.00 0.00 0.00 33 1016.8
20260502180144 17 152 0.0 1.6 0.00 0.00 0.00 34 1017.1
20260502170108 16 203 6.4 9.7 0.00 0.00 0.00 35 1017.9
20260502164055 15 118 0.0 1.6 0.00 0.00 0.00 38 1018.2
20260502163550 15 87 1.6 3.2 0.00 0.00 0.00 37 1018.2
20260502163048 15 131 3.2 4.8 0.00 0.00 0.00 40 1017.9
20260502162544 15 164 3.2 4.8 0.00 0.00 0.00 39 1017.9
20260502162042 15 161 3.2 4.8 0.00 0.00 0.00 40 1017.9
20260502161538 15 61 4.8 4.8 0.00 0.00 0.00 39 1018.2
20260502161036 15 153 0.0 0.0 0.00 0.00 0.00 39 1018.2
20260502160534 15 153 1.6 1.6 0.00 0.00 0.00 38 1018.2
20260502151947 12 101 1.6 3.2 0.00 0.00 0.00 43 1018.6
20260502151444 12 79 1.6 3.2 0.00 0.00 0.00 43 1018.6
20260502150941 12 91 0.0 1.6 0.00 0.00 0.00 43 1018.6
20260502150438 11 152 0.0 1.6 0.00 0.00 0.00 43 1019.0
20260502130324 3 147 0.0 0.0 0.00 0.00 0.00 65 1019.0
20260502123809 3 147 0.0 0.0 0.00 0.00 0.00 71 1019.0
20260502123306 3 157 0.0 0.0 0.00 0.00 0.00 71 1018.6
20260502122803 3 151 0.0 1.6 0.00 0.00 0.00 71 1018.6
20260502122259 3 146 0.0 0.0 0.00 0.00 0.00 70 1018.6
20260502121757 3 151 0.0 0.0 0.00 0.00 0.00 70 1019.0
20260502121255 3 145 0.0 0.0 0.00 0.00 0.00 71 1019.0
20260502120751 3 144 0.0 0.0 0.00 0.00 0.00 70 1018.6
20260502120248 3 141 0.0 0.0 0.00 0.00 0.00 70 1018.6
20260502115746 3 140 0.0 0.0 0.00 0.00 0.00 70 1018.6
20260502115242 3 146 0.0 0.0 0.00 0.00 0.00 70 1018.6
20260502114738 3 143 0.0 0.0 0.00 0.00 0.00 69 1018.6
20260502114235 3 136 0.0 0.0 0.00 0.00 0.00 69 1018.6
20260502113732 4 135 0.0 0.0 0.00 0.00 0.00 69 1018.6
20260502113230 4 135 0.0 0.0 0.00 0.00 0.00 69 1018.6
20260502112728 4 133 0.0 0.0 0.00 0.00 0.00 69 1018.6
20260502112226 4 128 0.0 0.0 0.00 0.00 0.00 68 1018.6
20260502111722 4 121 0.0 1.6 0.00 0.00 0.00 68 1018.6
20260502111220 4 97 1.6 1.6 0.00 0.00 0.00 69 1018.6
20260502110717 4 147 0.0 0.0 0.00 0.00 0.00 69 1018.6
20260502110215 4 140 0.0 0.0 0.00 0.00 0.00 69 1018.6
20260502105712 4 142 0.0 0.0 0.00 0.00 0.00 69 1018.6
20260502105209 4 142 0.0 0.0 0.00 0.00 0.00 69 1018.2
20260502104707 4 140 0.0 0.0 0.00 0.00 0.00 68 1018.6
20260502104204 4 134 0.0 0.0 0.00 0.00 0.00 68 1018.6
20260502103702 4 139 0.0 0.0 0.00 0.00 0.00 68 1018.6
20260502103159 4 146 0.0 0.0 0.00 0.00 0.00 69 1018.6
20260502102656 5 142 0.0 0.0 0.00 0.00 0.00 69 1018.2
20260502102153 5 150 0.0 0.0 0.00 0.00 0.00 69 1018.2
20260502101651 5 146 0.0 0.0 0.00 0.00 0.00 69 1018.6
20260502101149 5 144 0.0 1.6 0.00 0.00 0.00 69 1018.6
20260502100647 5 139 0.0 0.0 0.00 0.00 0.00 69 1018.2
20260502100145 5 134 0.0 0.0 0.00 0.00 0.00 68 1018.6
20260502091119 5 142 0.0 0.0 0.00 0.00 0.00 69 1018.6
20260502090615 5 147 0.0 0.0 0.00 0.00 0.00 69 1018.6
20260502090113 5 147 0.0 0.0 0.00 0.00 0.00 69 1018.2
20260502071504 6 153 0.0 0.0 0.00 0.00 0.00 65 1017.9
20260502071002 6 157 0.0 0.0 0.00 0.00 0.00 65 1017.9
20260502070500 6 158 0.0 1.6 0.00 0.00 0.00 65 1017.9
20260502065958 6 155 0.0 0.0 0.00 0.00 0.00 66 1017.9
20260502065456 6 155 0.0 0.0 0.00 0.00 0.00 65 1018.2
20260502064954 6 153 0.0 0.0 0.00 0.00 0.00 66 1018.2
20260502064452 6 151 0.0 0.0 0.00 0.00 0.00 66 1017.9
20260502063948 6 155 0.0 0.0 0.00 0.00 0.00 66 1017.9
20260502063447 6 159 0.0 1.6 0.00 0.00 0.00 65 1017.9
20260502062944 6 161 0.0 1.6 0.00 0.00 0.00 66 1017.5
20260502062441 7 162 0.0 1.6 0.00 0.00 0.00 66 1017.9
20260502061940 7 161 0.0 1.6 0.00 0.00 0.00 66 1017.9
20260502061437 7 161 0.0 1.6 0.00 0.00 0.00 66 1017.9
20260502060932 8 163 0.0 1.6 0.00 0.00 0.00 65 1017.5
20260502060428 8 167 0.0 1.6 0.00 0.00 0.00 64 1017.5
20260502055925 9 169 1.6 1.6 0.00 0.00 0.00 63 1017.9
20260502055423 9 160 0.0 0.0 0.00 0.00 0.00 62 1017.5
20260502054923 10 161 0.0 1.6 0.00 0.00 0.00 61 1017.9
20260502054420 10 134 0.0 0.0 0.00 0.00 0.00 59 1017.5
20260502053918 10 122 0.0 0.0 0.00 0.00 0.00 59 1017.5